Flag for U.S.A. Weather past 2 weeks in Anaheim, California, U.S.A.

Now
71 °F

Clear.


Feels Like: 70 °F
Forecast: 67 / 90 °F
Wind: 3 mph from South

Location: Fullerton Municipal Airport

Current Time: Aug 31, 2014 at 1:40:31 AM

Latest Report: Aug 31, 2014 at 12:53 AM


Visibility: 9 mi

Pressure: 29.77 "Hg

Humidity: 84%

Dew point: 66 °F

Location of AnaheimLocation

Historic Weather in Anaheim — Graph

°F

Anaheim temperature yesterday

Maximum temperature yesterday: 89 °F (at 1:53 PM)
Minimum temperature yesterday: 67 °F (at 5:53 AM)
Average temperature yesterday: 77 °F

Past Weeks' High & Low Weather Summary

 TemperatureHumidityPressure
High96 °F (Aug 28, 2:53 PM)90% (Aug 30, 5:53 AM)30.01 "Hg (Aug 30, 5:53 AM)
Low66 °F (Aug 25, 5:53 AM)18% (Aug 16, 3:53 PM)29.72 "Hg (Aug 30, 4:53 PM)
Average76 °F57%29.89 "Hg
* Reported Aug 15 11:53 PM — Aug 30 11:53 PM, Anaheim, Weather by CustomWeather, © 2014

Note: Actual official high and low records may vary slightly from our data, if they occured in-between our weather recording intervals... More about our weather records

Advertising

Anaheim weather history for previous 24 hours

 ConditionsComfort  
Time TempWeatherWind HumidityBarometerVisibility
11:53 PM
Aug 30
72 °FClear.6 mph78%29.76 "Hg10 mi
10:53 PM74 °FClear.5 mph69%29.75 "Hg10 mi
9:53 PM75 °FClear.3 mph69%29.76 "Hg10 mi
8:53 PM77 °FClear.5 mph64%29.75 "Hg10 mi
7:53 PM80 °FSunny.5 mph56%29.73 "Hg10 mi
6:53 PM82 °FSunny.7 mph51%29.72 "Hg10 mi
5:53 PM84 °FSunny.6 mph49%29.72 "Hg10 mi
4:53 PM87 °FSunny.6 mph45%29.72 "Hg10 mi
3:53 PM89 °FSunny.7 mph41%29.73 "Hg10 mi
2:53 PM89 °FSunny.6 mph38%29.75 "Hg10 mi
1:53 PM89 °FSunny.6 mph39%29.77 "Hg10 mi
12:53 PM88 °FSunny.6 mph42%29.79 "Hg10 mi
11:53 AM84 °FSunny.3 mph46%29.81 "Hg10 mi
10:53 AM79 °FSunny.3 mph56%29.82 "Hg10 mi
9:53 AM74 °FSunny.No wind67%29.83 "Hg8 mi
9:00 AM71 °FPartly sunny.No wind76%29.83 "Hg8 mi
7:53 AM68 °FLow clouds.No wind84%29.83 "Hg7 mi
6:53 AM67 °FFog.3 mph87%29.82 "Hg6 mi
5:53 AM67 °FFog.No wind90%29.81 "Hg6 mi
4:53 AM68 °FClear.No wind82%29.80 "Hg10 mi
3:53 AM69 °FClear.No wind79%29.80 "Hg10 mi
2:53 AM69 °FClear.No wind79%29.80 "Hg10 mi
1:53 AM69 °FClear.3 mph76%29.80 "Hg10 mi
Weather by CustomWeather, © 2014

See weather overviewHow to use our weather pages